www.pogodaiklimat.ru

Погода и климат >> Архив погоды >> Россия >> Крым >> Симферополь


АРХИВ ПОГОДЫ в Симферополе

Время (UTC), дата Ветер
(напр.,м/с)
 
Видим.   Явления Облачность Т
(С)
Тd
(С)
f
(%)
Тe
(С)
Тes
(С)
Комфортность P
(гПа)
Po
(гПа)
Тmin
(С)
Tmax
(С)
R
(мм)
R24
(мм)
S
(см)
21 4.12 В 6 10 км в посл. час туман 10/8 120 м
[St Ac und]
+0.3 0.0 98 -6 -6 прохладно 1015.0 992.4
00 5.12 В 6 10 км {туман} 10/10 120 м
[St]
+1.0 +0.9 99 -6 -6 прохладно 1014.5 992.0
03 5.12 В 8-10
{10}
300 м туман ?/? +1.5 +1.5 100 -6 -6 прохладно 1013.8 991.3 +0.1
06 5.12 В 8
{10}
2200 м в посл. час туман 10/10 90 м
[St]
+2.0 +1.7 98 -5 -5 по сезону 1014.3 991.8 +0.1
09 5.12 СВ 6 3500 м дымка 10/10 120 м
[St]
+3.0 +2.8 99 -3 -3 по сезону 1014.2 991.8
12 5.12 СВ 5 1700 м дымка 10/10 90 м
[St]
+2.6 +2.5 99 -3 -3 прохладно 1014.2 991.8
15 5.12 С 4 1500 м морось {туман} 10/10 90 м
[St]
+1.6 +1.3 98 -4 -4 прохладно 1015.3 992.8 0.0
18 5.12 С 3 3900 м слабая морось {туман} 10/10 120 м
[St]
+1.1 +0.8 98 -4 -4 по сезону 1016.1 993.5 +3.5 0.4
21 5.12 С 3 1900 м в посл. час морось 10/10 120 м
[St]
-0.2 -0.5 98 -5 -5 прохладно 1017.2 994.5
00 6.12 С 4 10 км слабая переохл. морось (гололёд) [диам. гололёда 1 мм] 10/10 180 м
[St]
-0.7 -0.8 99 -7 -7 прохладно 1017.9 995.1
03 6.12 С 2 6000 м в посл. час переохл. осадки {морось} [диам. гололёда 1 мм] 10/10 210 м
[St]
-0.7 -1.1 97 -5 -5 по сезону 1018.1 995.3 -1.0 0.7
06 6.12 С 2 6000 м дымка {морось} [диам. гололёда 1 мм] 10/10 180 м
[St]
-0.4 -1.0 96 -4 -4 по сезону 1019.0 996.2 -1.0 0.3
09 6.12 СЗ 3 5000 м дымка [диам. гололёда 1 мм] 10/10 150 м
[St]
+0.2 -0.2 97 -5 -5 прохладно 1018.9 996.2
12 6.12 СЗ 2 4800 м дымка 10/10 150 м
[St]
+0.6 +0.2 97 -3 -3 прохладно 1018.9 996.2
15 6.12 З 1 1400 м слабая морось {снег} 10/10 60 м
[St]
+0.6 +0.5 99 -2 -2 по сезону 1019.5 996.8 0.4
18 6.12 С 4 3600 м слабая морось {снег} 10/10 120 м
[St]
+0.5 +0.4 99 -5 -5 прохладно 1019.8 997.1 +0.8 0.9
21 6.12 С 3 4500 м дымка {снег, морось} 10/10 120 м
[St]
+0.5 +0.4 99 -4 -4 по сезону 1019.6 996.9
00 7.12 С 3 3500 м снежные зёрна {морось} 10/10 150 м
[St]
+0.4 +0.1 98 -4 -4 по сезону 1019.5 996.8
03 7.12 С 2 4700 м дымка {снег} 10/10 120 м
[St]
+0.3 +0.2 99 -4 -4 по сезону 1018.8 996.1 +0.3 0.8
06 7.12 С 4 6000 м дымка {снег} 10/10 150 м
[St]
+0.1 -0.2 98 -6 -6 прохладно 1019.7 997.0 +0.1 0.3
09 7.12 С 3 10 км {снег} 10/10 240 м
[St]
+0.8 -0.2 93 -4 -4 прохладно 1019.8 997.1
12 7.12 СЗ 4 10 км {снег} 10/8 630 м
[Sc Ac und]
+1.8 -1.1 81 -3 -3 прохладно 1019.3 996.7
15 7.12 СЗ 2 10 км 10/6 450 м
[St Ac und]
+0.6 -0.5 92 -3 -3 по сезону 1020.0 997.3 0.0
18 7.12 штиль 0 10 км 9/5 300 м
[St Ac trans]
-0.3 -1.4 92 -2 -2 по сезону 1020.4 997.6 +1.9 0.0
21 7.12 СЗ 2 10 км 3/3 300 м
[St]
-2.2 -2.9 95 -6 -6 прохладно 1020.7 997.7
00 8.12 ЮВ 3 10 км 1/0
[Ac trans]
-3.3 -4.3 93 -9 -9 холодно 1019.9 996.9
03 8.12 ЮВ 3 10 км 10/10 1320 м
[Sc]
-1.2 -4.5 78 -6 -6 прохладно 1019.0 996.2 -3.4
06 8.12 ЮВ 2 10 км 10/6 1380 м
[Sc Ci sp]
-0.9 -3.3 84 -5 -5 по сезону 1019.3 996.5 -3.4
09 8.12 Ю 4 10 км 10/0
[Ac trans Ci fib]
+3.2 -1.0 74 -1 -0 по сезону 1018.6 996.1
12 8.12 ЮЗ 4 10 км 6/3 1000 м
[Sc Ac trans]
+5.6 -0.7 64 +2 +3 по сезону 1017.4 995.2
15 8.12 ЮВ 3 10 км 9/0
[Ac trans]
+3.5 -0.9 73 -0 -0 по сезону 1017.6 995.2
18 8.12 ЮВ 4 10 км 5/0
[Ac trans]
+2.1 -1.0 80 -3 -3 по сезону 1016.8 994.3 +6.3
21 8.12 ЮВ 2 10 км 6/0
[Ac trans]
+1.2 -2.0 79 -2 -2 по сезону 1016.5 993.9
00 9.12 В 2 10 км 9/0
[Ac trans]
+0.8 -1.3 86 -3 -3 по сезону 1015.5 992.9
03 9.12 ЮВ 5 10 км 10/0
[Ac und]
+3.4 -0.4 76 -2 -2 по сезону 1013.7 991.4 +0.1
06 9.12 ЮВ 2 10 км 9/0
[Ac trans]
+3.9 +0.1 76 +1 +1 по сезону 1013.0 990.7 +0.1
09 9.12 Ю 1 10 км 10/0
[Ac und]
+8.6 +1.0 59 +8 +9 тепло 1012.2 990.3
12 9.12 ЮЗ 6 10 км 9/0
[Ac trans]
+11.2 -4.5 33 +9 +9 тепло 1010.7 989.0
15 9.12 Ю 4 10 км 3/0
[Ac trans]
+5.2 -1.7 61 +2 +2 по сезону 1010.5 988.4
18 9.12 Ю 4 10 км 6/0
[Ci fib]
+4.1 +0.3 76 -0 -0 по сезону 1009.9 987.7 +11.7
21 9.12 ЮВ 4 10 км 8/0
[Ac trans Ci fib]
+3.6 +1.5 86 -1 -1 по сезону 1008.9 986.7
00 10.12 ЮВ 3 10 км 10/0
[Ac und]
+5.5 +2.2 79 +2 +2 тепло 1008.2 986.2
03 10.12 Ю 3 10 км слабый ливневой дождь 10/10 1350 м
[Cb calv]
+5.9 +4.7 92 +3 +3 тепло 1007.0 985.0 +2.6 1
06 10.12 В 2 10 км {ливн. осадки, дождь} 10/4 1110 м
[Cb calv Ac und]
+5.5 +4.8 95 +3 +3 тепло 1006.6 984.6 +2.6 2
09 10.12 ЮВ 3 10 км слабый дождь {ливн. осадки} 10/4 1080 м
[Sc As op]
+7.2 +5.5 89 +4 +4 тепло 1005.3 983.5
12 10.12 СВ 3 10 км слабый дождь {ливн. осадки} 10/6 960 м
[Frnb As op]
+6.7 +6.1 96 +3 +4 по сезону 1005.4 983.5
15 10.12 В 2 10 км слабый дождь 10/10 1020 м
[Sc]
+5.9 +5.5 97 +3 +3 тепло 1006.7 984.7 5
18 10.12 В 3 5000 м в посл. час дождь 10/10 1140 м
[Sc]
+6.2 +5.5 95 +3 +3 тепло 1006.7 984.8 +7.3 5
21 10.12 В 3 6000 м дымка 8/0
[Ci fib]
+3.4 +3.0 97 -1 -1 по сезону 1006.8 984.6
00 11.12 СВ 6 10 км 10/0
[Ci fib]
+2.9 +2.6 98 -3 -3 по сезону 1005.0 982.8
03 11.12 СВ 8-12
{12}
400 м туман ?/? +2.9 +2.9 100 -4 -4 по сезону 1003.2 981.1 +2.2 0.3
06 11.12 СВ 12-16
{16}
6000 м слабый ливневой дождь {туман} 10/10 540 м
[Cb calv]
+3.4 +3.3 99 -4 -4 по сезону 1000.9 978.9 +2.2 5
09 11.12 СВ 9-12
{16}
10 км слабый дождь {ливн. осадки} 10/8 540 м
[Frnb As op]
+3.6 +3.5 99 -3 -3 по сезону 998.5 976.5
12 11.12 С 7-10
{13}
10 км слабый ливневой дождь 10/10 600 м
[Cb calv]
+3.5 +3.0 97 -3 -3 прохладно 997.5 975.5
15 11.12 СЗ 7-12
{13}
600 м ливневой снег ?/? +0.1 0.0 99 -7 -7 холодно 1001.5 979.2 30
18 11.12 З 8-10
{12}
800 м сильный снег {ливн. осадки} ?/? +0.1 -0.2 98 -8 -8 холодно 1004.7 982.3 +3.9 32

 

Местоположение метеостанции Симферополь (Крым, Россия): широта 45.03 долгота 33.97 высота над уровнем моря 181 м.

В архиве по умолчанию представлена погода в Симферополе за последнюю неделю. Архивные данные за месяц целиком и за предыдущие месяцы, начиная с января 2011 года, Вы можете получить, выбрав интересующий диапазон дат из раскрывающегося списка и нажав кнопку "Ввод!".


*Определитесь, кто Вы:
робот инопланетянин человек

Внимание! Время в таблицах - всемирное. Для получения местного времени необходимо прибавить поправку, которая в Симферополе равна 3 ч.

Смотрите также архив погоды в соседних городах и на ближайших метеорологических станциях:

Погода в Симферополе город (Крым, Россия) (15 км)
Погода в Почтовом (Крым, Россия) (22 км)
Погода в Ангарском Перевале (Крым, Россия) (43 км)
Погода в Белогорске (Крым, Россия) (50 км)
Погода в Евпатории (Крым, Россия) (50 км)
Погода в Алуште (Крым, Россия) (52 км)
Погода в Севастополе (город Севастополь, Россия) (57 км)
Погода в Клепинино (Крым, Россия) (58 км)
Погода в Никитском саду (Крым, Россия) (61 км)
Погода в Ай-Петри (Крым, Россия) (63 км)

Пояснения к столбцам:

Ветер - указаны скорость ветра в м/с - средняя за 10 мин, порывы в срок и между сроками (в фигурных скобках) и направление, откуда дует ветер: С - северный, СВ - северо-восточный, В - восточный, ЮВ - юго-восточный, Ю - южный, ЮЗ - юго-западный, З - западный, СЗ - северо-западный.
Видимость - горизонтальная дальность видимости в метрах или километрах. При видимости от 1 до 10 км при отсутствии осадков обычно наблюдается дымка, при ухудшении видимости до 1 км и менее - туман. В сухую погоду видимость может ухудшаться дымом, пылью или мглою.
Явления - указаны атмосферные явления, наблюдавшиеся в срок или в последний час перед сроком; фигурными скобками обозначены явления, наблюдавшиеся между сроками (за 1-3 часа до срока); квадратными скобками обозначены град или гололедные отложения с указанием их диаметра в мм.
Облачность - указаны через наклонную черту общая и нижняя облачность в баллах и высота нижней границы облаков в метрах; квадратными скобками обозначены формы облаков: Ci - перистые, Cs - перисто-слоистые, Cc - перисто-кучевые, Ac - высококучевые, As - высокослоистые, Sc - слоисто-кучевые, Ns - слоисто-дождевые, Cu - кучевые, Cb - кучево-дождевые. Подробнее классификацию облаков см. в Атласе облаков (PDF).
T - Температура воздуха - температура, измеренная на высоте 2 м над землей.
Td - Температура точки росы - температура, при понижении до которой содержащийся в воздухе водяной пар достигнет насыщения.
f - Относительная влажность воздуха - влажноcть воздуха, измеренная на высоте 2 м над землей.
Te - Эффективная температура - температура, которую ощущает одетый по сезону человек в тени. Характеристика душности погоды. При расчете учитывается влияние влажности воздуха и скорости ветра на теплоощущения человека.
Tes - Эффективная температура на солнце - температура, которую ощущает человек, с поправкой на солнечный нагрев. Характеристика знойности погоды. Зависит от высоты солнца над горизонтом, облачности и скорости ветра. Ночью, в пасмурную погоду, а также при ветре 12 м/с и более поправка равна нулю.
P - Атмосферное давление - приведенное к уровню моря атмосферное давление.
Po - Атмосферное давление - измеренное на уровне метеостанции атмосферное давление.
Tmin - Минимальная температура - минимум температуры воздуха на высоте 2 м над землей.
Tmax - Максимальная температура - максимум температуры воздуха на высоте 2 м над землей.
R - Количество осадков - Количество выпавших осадков за период времени, мм. При наведении курсора мыши на число - период времени, за который выпало указанное количество осадков.
R24 - Количество осадков - Количество выпавших осадков за 24 часа, мм.
S - Снежный покров - Высота снежного покрова, см. При наведении курсора мыши на число - состояние снежного покрова и степень покрытия местности в баллах.